Time,TemperatureF,DewpointF,PressureIn,WindDirection,WindDirectionDegrees,WindSpeedMPH,WindSpeedGustMPH,Humidity,HourlyPrecipIn,Conditions,Clouds,dailyrainin,SoftwareType,DateUTC
2013-06-10 00:02:00,57.0,36.0,-100.00,North,0,4.0,6.0,45,-99.99,,,-99.99,,2013-06-10 07:02:00,
2013-06-10 00:12:00,57.0,36.0,-100.00,North,0,4.0,6.0,45,-99.99,,,-99.99,,2013-06-10 07:12:00,
2013-06-10 00:22:00,56.0,35.0,-100.00,North,0,4.0,8.0,45,-99.99,,,-99.99,,2013-06-10 07:22:00,
2013-06-10 00:32:00,55.0,35.0,-100.00,North,0,4.0,9.0,46,-99.99,,,-99.99,,2013-06-10 07:32:00,
2013-06-10 00:42:00,55.0,35.0,-100.00,North,0,4.0,9.0,46,-99.99,,,-99.99,,2013-06-10 07:42:00,
2013-06-10 00:52:00,54.0,34.0,-100.00,NW,315,3.0,8.0,46,-99.99,,,-99.99,,2013-06-10 07:52:00,
2013-06-10 01:02:00,54.0,34.0,-100.00,SW,225,2.0,4.0,47,-99.99,,,-99.99,,2013-06-10 08:02:00,
2013-06-10 01:12:00,54.0,34.0,-100.00,SW,225,2.0,4.0,47,-99.99,,,-99.99,,2013-06-10 08:12:00,
2013-06-10 01:21:00,53.0,34.0,-100.00,West,270,2.0,4.0,48,-99.99,,,-99.99,,2013-06-10 08:21:00,
2013-06-10 01:31:00,53.0,34.0,-100.00,NW,315,3.0,6.0,48,-99.99,,,-99.99,,2013-06-10 08:31:00,
2013-06-10 01:42:00,53.0,34.0,-100.00,NW,315,3.0,6.0,48,-99.99,,,-99.99,,2013-06-10 08:42:00,
2013-06-10 01:52:00,52.0,34.0,-100.00,North,0,1.0,3.0,49,-99.99,,,-99.99,,2013-06-10 08:52:00,
2013-06-10 02:02:00,51.0,34.0,-100.00,SW,225,3.0,4.0,51,-99.99,,,-99.99,,2013-06-10 09:02:00,
2013-06-10 02:12:00,51.0,34.0,-100.00,SW,225,3.0,4.0,51,-99.99,,,-99.99,,2013-06-10 09:12:00,
2013-06-10 02:22:00,51.0,35.0,-100.00,South,180,4.0,4.0,54,-99.99,,,-99.99,,2013-06-10 09:22:00,
2013-06-10 02:32:00,50.0,35.0,-100.00,South,180,4.0,6.0,56,-99.99,,,-99.99,,2013-06-10 09:32:00,
2013-06-10 02:42:00,50.0,35.0,-100.00,South,180,4.0,6.0,56,-99.99,,,-99.99,,2013-06-10 09:42:00,
2013-06-10 02:53:00,48.0,35.0,-100.00,SW,225,8.0,9.0,60,-99.99,,,-99.99,,2013-06-10 09:53:00,
2013-06-10 03:02:00,48.0,35.0,-100.00,South,180,4.0,8.0,61,-99.99,,,-99.99,,2013-06-10 10:02:00,
2013-06-10 03:12:00,48.0,35.0,-100.00,South,180,4.0,8.0,61,-99.99,,,-99.99,,2013-06-10 10:12:00,
2013-06-10 03:22:00,48.0,35.0,-100.00,South,180,3.0,6.0,61,-99.99,,,-99.99,,2013-06-10 10:22:00,
2013-06-10 03:33:00,48.0,35.0,-100.00,South,180,4.0,7.0,61,-99.99,,,-99.99,,2013-06-10 10:33:00,
2013-06-10 03:42:00,48.0,35.0,-100.00,South,180,4.0,7.0,61,-99.99,,,-99.99,,2013-06-10 10:42:00,
2013-06-10 03:52:00,47.0,34.0,-100.00,South,180,5.0,7.0,61,-99.99,,,-99.99,,2013-06-10 10:52:00,
2013-06-10 04:02:00,47.0,35.0,-100.00,South,180,5.0,8.0,63,-99.99,,,-99.99,,2013-06-10 11:02:00,
2013-06-10 04:12:00,47.0,35.0,-100.00,South,180,5.0,8.0,63,-99.99,,,-99.99,,2013-06-10 11:12:00,
2013-06-10 04:22:00,46.0,35.0,-100.00,SW,225,6.0,9.0,64,-99.99,,,-99.99,,2013-06-10 11:22:00,
2013-06-10 04:32:00,45.0,34.0,-100.00,South,180,7.0,9.0,66,-99.99,,,-99.99,,2013-06-10 11:32:00,
2013-06-10 04:42:00,45.0,34.0,-100.00,South,180,7.0,9.0,66,-99.99,,,-99.99,,2013-06-10 11:42:00,
2013-06-10 04:52:00,45.0,35.0,-100.00,South,180,8.0,11.0,68,-99.99,,,-99.99,,2013-06-10 11:52:00,
2013-06-10 05:02:00,44.0,34.0,-100.00,South,180,7.0,9.0,68,-99.99,,,-99.99,,2013-06-10 12:02:00,
2013-06-10 05:12:00,44.0,34.0,-100.00,South,180,7.0,9.0,68,-99.99,,,-99.99,,2013-06-10 12:12:00,
2013-06-10 05:22:00,43.0,34.0,-100.00,South,180,6.0,8.0,69,-99.99,,,-99.99,,2013-06-10 12:22:00,
2013-06-10 05:32:00,43.0,33.0,-100.00,South,180,6.0,10.0,69,-99.99,,,-99.99,,2013-06-10 12:32:00,
2013-06-10 05:42:00,43.0,33.0,-100.00,South,180,6.0,10.0,69,-99.99,,,-99.99,,2013-06-10 12:42:00,
2013-06-10 05:52:00,43.0,34.0,-100.00,South,180,7.0,9.0,70,-99.99,,,-99.99,,2013-06-10 12:52:00,
2013-06-10 06:02:00,44.0,35.0,-100.00,South,180,6.0,11.0,70,-99.99,,,-99.99,,2013-06-10 13:02:00,
2013-06-10 06:11:00,44.0,35.0,-100.00,South,180,6.0,11.0,70,-99.99,,,-99.99,,2013-06-10 13:11:00,
2013-06-10 06:22:00,45.0,35.0,-100.00,South,180,6.0,10.0,69,-99.99,,,-99.99,,2013-06-10 13:22:00,
2013-06-10 06:32:00,46.0,36.0,-100.00,South,180,6.0,9.0,68,-99.99,,,-99.99,,2013-06-10 13:32:00,
2013-06-10 06:42:00,46.0,36.0,-100.00,South,180,6.0,9.0,68,-99.99,,,-99.99,,2013-06-10 13:42:00,
2013-06-10 06:52:00,47.0,36.0,-100.00,South,180,6.0,9.0,67,-99.99,,,-99.99,,2013-06-10 13:52:00,
2013-06-10 07:02:00,47.0,37.0,-100.00,South,180,7.0,10.0,67,-99.99,,,-99.99,,2013-06-10 14:02:00,
2013-06-10 07:22:00,48.0,38.0,-100.00,SW,225,6.0,9.0,66,-99.99,,,-99.99,,2013-06-10 14:22:00,
2013-06-10 07:32:00,50.0,38.0,-100.00,SW,225,4.0,8.0,65,-99.99,,,-99.99,,2013-06-10 14:32:00,
2013-06-10 07:42:00,50.0,38.0,-100.00,SW,225,4.0,8.0,65,-99.99,,,-99.99,,2013-06-10 14:42:00,
2013-06-10 07:52:00,50.0,38.0,-100.00,SW,225,6.0,8.0,64,-99.99,,,-99.99,,2013-06-10 14:52:00,
2013-06-10 08:02:00,53.0,40.0,-100.00,South,180,2.0,6.0,61,-99.99,,,-99.99,,2013-06-10 15:02:00,
2013-06-10 08:12:00,53.0,40.0,-100.00,South,180,2.0,6.0,61,-99.99,,,-99.99,,2013-06-10 15:12:00,
2013-06-10 08:22:00,55.0,40.0,-100.00,SE,135,3.0,4.0,56,-99.99,,,-99.99,,2013-06-10 15:22:00,
2013-06-10 08:32:00,57.0,40.0,-100.00,SE,135,1.0,6.0,53,-99.99,,,-99.99,,2013-06-10 15:32:00,
2013-06-10 08:43:00,57.0,40.0,-100.00,SE,135,1.0,6.0,53,-99.99,,,-99.99,,2013-06-10 15:43:00,
2013-06-10 08:53:00,57.0,39.0,-100.00,SW,225,2.0,6.0,51,-99.99,,,-99.99,,2013-06-10 15:53:00,
2013-06-10 09:02:00,59.0,39.0,-100.00,NW,315,1.0,7.0,47,-99.99,,,-99.99,,2013-06-10 16:02:00,
2013-06-10 09:12:00,59.0,39.0,-100.00,NW,315,1.0,7.0,47,-99.99,,,-99.99,,2013-06-10 16:12:00,
2013-06-10 09:23:00,59.0,37.0,-100.00,NE,45,5.0,7.0,44,-99.99,,,-99.99,,2013-06-10 16:23:00,
2013-06-10 09:33:00,61.0,38.0,-100.00,NE,45,3.0,8.0,43,-99.99,,,-99.99,,2013-06-10 16:33:00,
2013-06-10 09:42:00,61.0,38.0,-100.00,NE,45,3.0,8.0,43,-99.99,,,-99.99,,2013-06-10 16:42:00,
2013-06-10 09:52:00,62.0,38.0,-100.00,South,180,1.0,7.0,41,-99.99,,,-99.99,,2013-06-10 16:52:00,
2013-06-10 10:03:00,63.0,38.0,-100.00,NE,45,3.0,6.0,40,-99.99,,,-99.99,,2013-06-10 17:03:00,
2013-06-10 10:14:00,63.0,38.0,-100.00,NE,45,3.0,6.0,40,-99.99,,,-99.99,,2013-06-10 17:14:00,
2013-06-10 10:26:00,64.0,38.0,-100.00,SE,135,4.0,8.0,38,-99.99,,,-99.99,,2013-06-10 17:26:00,
2013-06-10 10:38:00,64.0,38.0,-100.00,SE,135,1.0,8.0,38,-99.99,,,-99.99,,2013-06-10 17:38:00,
2013-06-10 10:48:00,64.0,38.0,-100.00,SE,135,1.0,8.0,38,-99.99,,,-99.99,,2013-06-10 17:48:00,
2013-06-10 10:58:00,65.0,37.0,-100.00,NE,45,7.0,9.0,36,-99.99,,,-99.99,,2013-06-10 17:58:00,
2013-06-10 11:07:00,67.0,37.0,-100.00,NE,45,1.0,9.0,34,-99.99,,,-99.99,,2013-06-10 18:07:00,
2013-06-10 11:14:00,67.0,37.0,-100.00,NE,45,1.0,9.0,34,-99.99,,,-99.99,,2013-06-10 18:14:00,
2013-06-10 11:24:00,68.0,37.0,-100.00,East,90,6.0,11.0,32,-99.99,,,-99.99,,2013-06-10 18:24:00,
2013-06-10 11:34:00,69.0,37.0,-100.00,NE,45,5.0,9.0,31,-99.99,,,-99.99,,2013-06-10 18:34:00,
2013-06-10 11:48:00,69.0,37.0,-100.00,NE,45,5.0,9.0,31,-99.99,,,-99.99,,2013-06-10 18:48:00,
2013-06-10 11:55:00,68.0,36.0,-100.00,SW,225,1.0,9.0,31,-99.99,,,-99.99,,2013-06-10 18:55:00,
2013-06-10 12:02:00,68.0,36.0,-100.00,North,0,9.0,12.0,30,-99.99,,,-99.99,,2013-06-10 19:02:00,
2013-06-10 12:12:00,68.0,36.0,-100.00,North,0,9.0,12.0,30,-99.99,,,-99.99,,2013-06-10 19:12:00,
2013-06-10 12:22:00,69.0,35.0,-100.00,NE,45,3.0,10.0,28,-99.99,,,-99.99,,2013-06-10 19:22:00,
2013-06-10 12:32:00,70.0,34.0,-100.00,NW,315,8.0,11.0,27,-99.99,,,-99.99,,2013-06-10 19:32:00,
2013-06-10 12:42:00,70.0,34.0,-100.00,NW,315,8.0,11.0,27,-99.99,,,-99.99,,2013-06-10 19:42:00,
2013-06-10 12:53:00,71.0,35.0,-100.00,NE,45,6.0,9.0,27,-99.99,,,-99.99,,2013-06-10 19:53:00,
2013-06-10 13:02:00,72.0,35.0,-100.00,North,0,6.0,11.0,26,-99.99,,,-99.99,,2013-06-10 20:02:00,
2013-06-10 13:22:00,72.0,35.0,-100.00,North,0,6.0,12.0,26,-99.99,,,-99.99,,2013-06-10 20:22:00,
2013-06-10 13:32:00,73.0,37.0,-100.00,North,0,4.0,14.0,27,-99.99,,,-99.99,,2013-06-10 20:32:00,
2013-06-10 13:42:00,73.0,37.0,-100.00,North,0,4.0,14.0,27,-99.99,,,-99.99,,2013-06-10 20:42:00,
2013-06-10 13:52:00,73.0,37.0,-100.00,NE,45,6.0,12.0,27,-99.99,,,-99.99,,2013-06-10 20:52:00,
2013-06-10 14:02:00,74.0,38.0,-100.00,North,0,9.0,12.0,27,-99.99,,,-99.99,,2013-06-10 21:02:00,
2013-06-10 14:22:00,73.0,37.0,-100.00,North,0,6.0,12.0,27,-99.99,,,-99.99,,2013-06-10 21:22:00,
2013-06-10 14:33:00,74.0,38.0,-100.00,North,0,4.0,13.0,27,-99.99,,,-99.99,,2013-06-10 21:33:00,
2013-06-10 14:42:00,74.0,38.0,-100.00,North,0,4.0,13.0,27,-99.99,,,-99.99,,2013-06-10 21:42:00,
2013-06-10 14:53:00,75.0,39.0,-100.00,NW,315,4.0,14.0,27,-99.99,,,-99.99,,2013-06-10 21:53:00,
2013-06-10 15:02:00,74.0,38.0,-100.00,NW,315,6.0,15.0,27,-99.99,,,-99.99,,2013-06-10 22:02:00,
2013-06-10 15:22:00,74.0,38.0,-100.00,North,0,8.0,16.0,27,-99.99,,,-99.99,,2013-06-10 22:22:00,
2013-06-10 15:33:00,75.0,39.0,-100.00,West,270,8.0,16.0,27,-99.99,,,-99.99,,2013-06-10 22:33:00,
2013-06-10 15:42:00,75.0,39.0,-100.00,West,270,8.0,16.0,27,-99.99,,,-99.99,,2013-06-10 22:42:00,
2013-06-10 15:52:00,75.0,38.0,-100.00,North,0,8.0,15.0,27,-99.99,,,-99.99,,2013-06-10 22:52:00,
2013-06-10 16:02:00,75.0,38.0,-100.00,North,0,11.0,17.0,27,-99.99,,,-99.99,,2013-06-10 23:02:00,
2013-06-10 16:12:00,75.0,38.0,-100.00,North,0,11.0,17.0,27,-99.99,,,-99.99,,2013-06-10 23:12:00,
2013-06-10 16:22:00,76.0,40.0,-100.00,NW,315,9.0,13.0,27,-99.99,,,-99.99,,2013-06-10 23:22:00,
2013-06-10 16:32:00,74.0,38.0,-100.00,North,0,11.0,21.0,27,-99.99,,,-99.99,,2013-06-10 23:32:00,
2013-06-10 16:42:00,74.0,38.0,-100.00,North,0,11.0,21.0,27,-99.99,,,-99.99,,2013-06-10 23:42:00,
2013-06-10 16:52:00,75.0,40.0,-100.00,North,0,14.0,21.0,28,-99.99,,,-99.99,,2013-06-10 23:52:00,
2013-06-10 17:01:00,76.0,40.0,-100.00,North,0,9.0,14.0,28,-99.99,,,-99.99,,2013-06-11 00:01:00,
2013-06-10 17:22:00,74.0,39.0,-100.00,North,0,11.0,17.0,28,-99.99,,,-99.99,,2013-06-11 00:22:00,
2013-06-10 17:32:00,74.0,39.0,-100.00,North,0,12.0,17.0,28,-99.99,,,-99.99,,2013-06-11 00:32:00,
2013-06-10 17:42:00,74.0,39.0,-100.00,North,0,12.0,17.0,28,-99.99,,,-99.99,,2013-06-11 00:42:00,
2013-06-10 17:52:00,74.0,39.0,-100.00,North,0,12.0,21.0,28,-99.99,,,-99.99,,2013-06-11 00:52:00,
2013-06-10 18:02:00,73.0,38.0,-100.00,NW,315,13.0,20.0,28,-99.99,,,-99.99,,2013-06-11 01:02:00,
2013-06-10 18:12:00,73.0,38.0,-100.00,NW,315,13.0,20.0,28,-99.99,,,-99.99,,2013-06-11 01:12:00,
2013-06-10 18:22:00,73.0,39.0,-100.00,North,0,12.0,21.0,29,-99.99,,,-99.99,,2013-06-11 01:22:00,
2013-06-10 18:32:00,73.0,39.0,-100.00,NW,315,9.0,17.0,29,-99.99,,,-99.99,,2013-06-11 01:32:00,
2013-06-10 18:42:00,73.0,39.0,-100.00,NW,315,9.0,17.0,29,-99.99,,,-99.99,,2013-06-11 01:42:00,
2013-06-10 18:52:00,72.0,39.0,-100.00,North,0,10.0,16.0,30,-99.99,,,-99.99,,2013-06-11 01:52:00,
2013-06-10 19:02:00,70.0,38.0,-100.00,NW,315,12.0,19.0,30,-99.99,,,-99.99,,2013-06-11 02:02:00,
2013-06-10 19:12:00,70.0,38.0,-100.00,NW,315,12.0,19.0,30,-99.99,,,-99.99,,2013-06-11 02:12:00,
2013-06-10 19:22:00,69.0,37.0,-100.00,NW,315,12.0,21.0,31,-99.99,,,-99.99,,2013-06-11 02:22:00,
2013-06-10 19:32:00,69.0,38.0,-100.00,NW,315,11.0,17.0,32,-99.99,,,-99.99,,2013-06-11 02:32:00,
2013-06-10 19:42:00,69.0,38.0,-100.00,NW,315,11.0,17.0,32,-99.99,,,-99.99,,2013-06-11 02:42:00,
2013-06-10 19:52:00,69.0,38.0,-100.00,NW,315,11.0,20.0,32,-99.99,,,-99.99,,2013-06-11 02:52:00,
2013-06-10 20:02:00,68.0,37.0,-100.00,NW,315,12.0,16.0,33,-99.99,,,-99.99,,2013-06-11 03:02:00,
2013-06-10 20:12:00,68.0,37.0,-100.00,NW,315,12.0,16.0,33,-99.99,,,-99.99,,2013-06-11 03:12:00,
2013-06-10 20:22:00,66.0,37.0,-100.00,NW,315,12.0,18.0,34,-99.99,,,-99.99,,2013-06-11 03:22:00,
2013-06-10 20:32:00,65.0,37.0,-100.00,North,0,9.0,15.0,36,-99.99,,,-99.99,,2013-06-11 03:32:00,
2013-06-10 20:42:00,65.0,37.0,-100.00,North,0,9.0,15.0,36,-99.99,,,-99.99,,2013-06-11 03:42:00,
2013-06-10 20:53:00,64.0,38.0,-100.00,NW,315,4.0,14.0,38,-99.99,,,-99.99,,2013-06-11 03:53:00,
2013-06-10 21:02:00,62.0,37.0,-100.00,NW,315,6.0,13.0,39,-99.99,,,-99.99,,2013-06-11 04:02:00,
2013-06-10 21:12:00,62.0,37.0,-100.00,NW,315,6.0,13.0,39,-99.99,,,-99.99,,2013-06-11 04:12:00,
2013-06-10 21:23:00,61.0,37.0,-100.00,North,0,6.0,9.0,41,-99.99,,,-99.99,,2013-06-11 04:23:00,
2013-06-10 21:33:00,60.0,37.0,-100.00,North,0,7.0,9.0,43,-99.99,,,-99.99,,2013-06-11 04:33:00,
2013-06-10 21:42:00,60.0,37.0,-100.00,North,0,7.0,9.0,43,-99.99,,,-99.99,,2013-06-11 04:42:00,
2013-06-10 21:52:00,59.0,38.0,-100.00,North,0,6.0,10.0,45,-99.99,,,-99.99,,2013-06-11 04:52:00,
2013-06-10 22:02:00,58.0,37.0,-100.00,North,0,5.0,9.0,46,-99.99,,,-99.99,,2013-06-11 05:02:00,
2013-06-10 22:12:00,58.0,37.0,-100.00,North,0,5.0,9.0,46,-99.99,,,-99.99,,2013-06-11 05:12:00,
2013-06-10 22:22:00,57.0,38.0,-100.00,NE,45,6.0,9.0,48,-99.99,,,-99.99,,2013-06-11 05:22:00,
2013-06-10 22:32:00,56.0,38.0,-100.00,North,0,7.0,9.0,50,-99.99,,,-99.99,,2013-06-11 05:32:00,
2013-06-10 22:42:00,56.0,38.0,-100.00,North,0,7.0,9.0,50,-99.99,,,-99.99,,2013-06-11 05:42:00,
2013-06-10 22:52:00,55.0,37.0,-100.00,NE,45,6.0,8.0,51,-99.99,,,-99.99,,2013-06-11 05:52:00,
2013-06-10 23:02:00,54.0,38.0,-100.00,NE,45,6.0,8.0,53,-99.99,,,-99.99,,2013-06-11 06:02:00,
2013-06-10 23:12:00,54.0,38.0,-100.00,NE,45,6.0,8.0,53,-99.99,,,-99.99,,2013-06-11 06:12:00,
2013-06-10 23:22:00,54.0,38.0,-100.00,North,0,4.0,9.0,54,-99.99,,,-99.99,,2013-06-11 06:22:00,
2013-06-10 23:32:00,54.0,38.0,-100.00,North,0,4.0,8.0,55,-99.99,,,-99.99,,2013-06-11 06:32:00,
2013-06-10 23:42:00,54.0,38.0,-100.00,North,0,4.0,8.0,55,-99.99,,,-99.99,,2013-06-11 06:42:00,
2013-06-10 23:52:00,53.0,37.0,-100.00,North,0,4.0,6.0,56,-99.99,,,-99.99,,2013-06-11 06:52:00,